Location: Riverside Cemetery
(38.3047°N, 99.7773°W)
Time: 11:48:09
(UTC+00:00)

Cosmos 1536 - Pass Details

Date: 19 September 2020
Orbit: 540 x 558 km, 82.5° (Epoch: 30 October)

Event Time Altitude Azimuth Distance (km) Brightness Sun altitude
Rises 11:46:55 0° 344° (NNW) 2,751 6.3 -8.2°
Reaches altitude 10° 11:49:11 10° 337° (NNW) 1,851 5.4 -7.8°
Maximum altitude 11:53:00 40° 268° (W) 827 3.3 -7.0°
Drops below altitude 10° 11:56:48 10° 198° (SSW) 1,835 5.3 -6.3°
Sets 11:59:02 0° 191° (S) 2,723 6.2 -5.9°
